Regional Weather Roundup
Issued by NWS

Home | Current Version | Previous Version | Graphics & Text | Print | Product List | Glossary On
Versions: 1 2 3 4 5 6 7 8 9 10 11 12 13 14 15 16 17 18 19 20 21 22 23 24 25 26 27 28 29 30 31 32 33 34 35 36 37 38 39 40 41 42 43 44 45 46 47 48 49 50
463
ASUS43 KFSD 200702
RWRSD

WEATHER ROUNDUP FOR SOUTH DAKOTA
NATIONAL WEATHER SERVICE SIOUX FALLS SD
200 AM CDT SUN AUG 20 2017

NOTE: "FAIR" INDICATES FEW OR NO CLOUDS BELOW 12,000 FEET WITH NO
SIGNIFICANT WEATHER AND/OR OBSTRUCTIONS TO VISIBILITY.


SDZ001>005-009-010-012>017-200800-
NORTHWEST AND NORTH CENTRAL SOUTH DAKOTA

CITY           SKY/WX    TMP DP  RH WIND       PRES   REMARKS
BUFFALO          N/A     67  45  45 N10       29.97S
FAITH            N/A     68  52  56 NE8       29.96R
MOBRIDGE       PTCLDY    71  55  56 N17G26    29.86R
$$

SDZ012>016-024>037-041>051-057-063-072>074-200800-
SOUTHWEST AND SOUTH CENTRAL SOUTH DAKOTA

CITY           SKY/WX    TMP DP  RH WIND       PRES   REMARKS
RAPID CTY ARPT CLEAR     62  43  49 NW8       29.97F
PIERRE         PTCLDY    71  66  84 N13       29.81F
CUSTER         CLEAR     63  35  35 NE12      30.09S
ELLSWORTH AFB  CLEAR     69  42  37 N8        29.96F
PHILIP         CLEAR     73  51  46 N20       29.88R
PINE RIDGE     CLEAR     60  49  66 CALM      29.93R
SPEARFISH      FAIR      64  41  42 NW8       30.06R
WINNER         FAIR      73  62  68 SW12      29.81R
$$

SDZ004>011-016>023-039-040-200800-
NORTHEAST SOUTH DAKOTA

CITY           SKY/WX    TMP DP  RH WIND       PRES   REMARKS
ABERDEEN       CLEAR     60  60 100 SE8       29.82F
WATERTOWN      CLEAR     65  64  97 S6        29.85R
BROOKINGS      CLOUDY    67  64  90 S5        29.85R
SISSETON         N/A     65  63  93 SE5       29.80S
$$

SDZ017-020-022-023-036>040-048>070-200800-
SOUTHEAST SOUTH DAKOTA

CITY           SKY/WX    TMP DP  RH WIND       PRES   REMARKS
SIOUX FALLS    CLOUDY    72  62  71 S8        29.84S
HURON          CLEAR     67  64  90 S7        29.83R
CHAMBERLAIN    CLEAR     67  67 100 E5        29.83R
MITCHELL       CLOUDY    69  65  86 SE7       29.83R
YANKTON        CLOUDY    70  65  84 SE6       29.87R
$$

ABBREVIATIONS USED IN REMARKS
   TC - TEMPERATURE IN CELSIUS
  WCI - WIND CHILL INDEX
   HX - HEAT INDEX
  VSB - VISIBILITY





USA.gov is the U.S. government's official web portal to all federal, state and local government web resources and services.